Hourly Weather Roundup
Issued by NWS Central Illinois

Home | Current Version | Previous Version | Text Only | Print | Product List | Glossary On
Versions: 1 2 3 4 5 6 7 8 9 10 11 12 13 14 15 16 17 18 19 20 21 22 23 24 25 26 27 28 29 30 31 32 33 34 35 36 37 38 39 40 41 42 43 44 45 46 47 48 49 50
000
NZUS43 KILX 042110
HWRILX

AREA WEATHER ROUNDUP
NATIONAL WEATHER SERVICE, LINCOLN IL
300 PM CST SUN DEC 04 2016


CITY           SKY/WX    TMP DP  RH WIND       PRES   REMARKS
BLOOMINGTON    LGT SNOW  34  31  88 CALM      29.90S VSB 3/4
CHAMPAIGN      SNOW      33  31  92 E8        29.88F VSB 1/2 WCI  26
DANVILLE       SNOW      32  32  99 CALM      29.87F VSB 1/2
DECATUR        SNOW     N/A N/A N/A CALM      29.90S VSB 1/2
EFFINGHAM      RAIN      40  40 100 SW8       29.93S WCI  34
FLORA          LGT RAIN  42  40  93 W8        29.92F
GALESBURG      LGT SNOW  33  32  97 CALM      29.92R
JACKSONVILLE   CLOUDY    33  32  96 CALM      29.93S FOG
LACON          LGT SNOW  32  32 100 CALM      29.92S VSB 3/4
LAWRENCEVILLE  LGT RAIN  43  41  93 SW10      29.92R FOG
LITCHFIELD     CLOUDY    35  34  97 W7        29.93R WCI  29
$$


CITY           SKY/WX    TMP DP  RH WIND       PRES   REMARKS
LINCOLN        HVY RAIN  33  33 100 CALM      29.92R
MACOMB         LGT SNOW  33  33 100 CALM      29.95S
MATTOON        LGT RAIN  36  34  92 CALM      29.88F
MT CARMEL AP   LGT RAIN  43  41  95 W10       29.92R
OLNEY-NOBLE AP LGT RAIN  41  41 100 W5        29.93S
PARIS          LGT RAIN  36  36  99 CALM      29.91F
PEORIA         LGT SNOW  32  32 100 E3        29.92F FOG
PONTIAC        LGT SNOW  33  33 100 CALM      29.91R VSB 3/4
RANTOUL        LGT SNOW  34  34  99 E7        29.86F VSB 3/4 WCI  28
SPRINGFIELD    LGT SNOW  34  32  92 CALM      29.92F FOG
TAYLORVILLE    LGT SNOW  32  32 100 CALM      29.93R
$$

...REGIONAL REPORTS...


CITY           SKY/WX    TMP DP  RH WIND       PRES   REMARKS
CHICAGO O`HARE HVY SNOW  32  31  96 SE3       29.91F VSB 1/4
KANKAKEE       SNOW      32  32  99 CALM      29.89F VSB 1/2
MOLINE         LGT SNOW  33  30  88 SE6       29.92S FOG     WCI  28
MOUNT STERLING CLOUDY    32  32  99 CALM      29.92S
MOUNT VERNON   NOT AVBL
PITTSFIELD     CLOUDY    34  33  97 SW6       29.95R WCI  29
QUINCY         CLOUDY    34  33  96 W6        29.92S WCI  29
ROCKFORD       SNOW      31  29  92 S5        29.94F VSB 1/2 WCI  26
$$


CITY           SKY/WX    TMP DP  RH WIND       PRES   REMARKS
BURLINGTON     CLOUDY    33  33 100 SW6       29.92S FOG     WCI  28
CEDAR RAPIDS   CLOUDY    32  32 100 S9        29.88F FOG     WCI  24
DES MOINES     CLOUDY    38  34  85 W10       29.90R FOG     WCI  31
KIRKSVILLE     CLOUDY    36  34  92 W6        29.94R WCI  31
OTTUMWA        CLOUDY    35  32  88 W8        29.90S WCI  29
ST LOUIS       CLOUDY    41  36  82 W9        29.94S
$$


CITY           SKY/WX    TMP DP  RH WIND       PRES   REMARKS
TERRE HAUTE    LGT RAIN  40  38  93 W5        29.91R FOG
EVANSVILLE     LGT RAIN  44  42  93 S7        29.93S FOG
INDIANAPOLIS   LGT RAIN  38  37  97 E6        29.90S VSB 1   WCI  33
LAFAYETTE      LGT SNOW  32  32 100 E7        29.90F VSB 3/4 WCI  26
MADISON        SNOW      31  30  96 S8        29.91F VSB 1/2 WCI  23
MILWAUKEE      SNOW      34  32  92 S5        29.92F VSB 1/2 WCI  30
$$






USA.gov is the U.S. government's official web portal to all federal, state and local government web resources and services.